Regional Weather Roundup
Issued by NWS Sioux Falls, SD

Home | Current Version | Previous Version | Graphics & Text | Print | Product List | Glossary On
Versions: 1 2 3 4 5 6 7 8 9 10 11 12 13 14 15 16 17 18 19 20 21 22 23 24 25 26 27 28 29 30 31 32 33 34 35 36 37 38 39 40 41 42 43 44 45 46 47 48 49 50
000
ASUS43 KFSD 231710
RWRFSD

WEATHER ROUNDUP FOR SE SOUTH DAKOTA/SW MINNESOTA/NW IOWA
NATIONAL WEATHER SERVICE SIOUX FALLS SD
1200 PM CDT TUE AUG 23 2016

NOTE: "FAIR" INDICATES FEW OR NO CLOUDS BELOW 12,000 FEET WITH NO
SIGNIFICANT WEATHER AND OR OBSTRUCTIONS TO VISIBILITY.


SDZ038>040-050-052>070-231800-
SOUTHEAST SOUTH DAKOTA

CITY           SKY/WX    TMP DP  RH WIND       PRES   REMARKS
BROOKINGS      MOSUNNY   76  66  71 S18G29    29.82F
CHAMBERLAIN    SUNNY     85  67  54 S18G24    29.74S
HURON          SUNNY     80  63  55 S21G32    29.74S
MADISON        FAIR      73  68  83 S16       29.84S
MITCHELL       SUNNY     82  65  56 S24G35    29.78F
SIOUX FALLS    CLOUDY    74  67  78 S20G28    29.85F
WINNER         FAIR      86  66  51 S18       29.75S
YANKTON        CLOUDY    68  64  88 SE13      29.84F
$$

MNZ071-072-080-081-089-090-097-098-231800-
SOUTHWEST MINNESOTA

CITY           SKY/WX    TMP DP  RH WIND       PRES   REMARKS
JACKSON        PTSUNNY   77  64  65 S13G23    29.94S
LUVERNE        PTSUNNY   73  64  73 S16       29.89S
MARSHALL       MOSUNNY   79  67  66 S21       29.85R
MONTEVIDEO     MOSUNNY   81  68  65 SW15G22   29.84S
PIPESTONE      MOSUNNY   73  66  78 S13G25    29.87F
REDWOOD FALLS  CLOUDY    79  67  66 S16       29.87S
TRACY          CLOUDY    78  69  74 S13G18    29.87S
WINDOM         MOSUNNY   77  66  69 S15G23    29.91S
WORTHINGTON    CLOUDY    75  68  78 S17       29.91F
$$

IAZ001>003-012>014-020>022-031-032-NEZ013-014-SDZ071-231800-
NORTHWEST IOWA

CITY           SKY/WX    TMP DP  RH WIND       PRES   REMARKS
CHEROKEE       PTSUNNY   76  71  83 S10       29.92F
DENISON        PTSUNNY   75  70  83 S15G28    29.91F
ESTHERVILLE    PTSUNNY   75  69  81 S20       29.94F
LE MARS        DRIZZLE   72  68  88 S12       29.92R
ORANGE CITY    LGT RAIN  72  68  88 S7        29.91F
SHELDON        CLOUDY    73  70  88 S15G23    29.90F
SIOUX CITY     CLOUDY    73  67  81 SE14      29.89F
SPENCER        CLOUDY    76  67  73 S12       29.93F
STORM LAKE     MOSUNNY   77  72  83 S15       29.95F
$$

ABBREVIATIONS USED IN REMARKS
   TC - TEMPERATURE IN CELSIUS
  WCI - WIND CHILL INDEX
   HX - HEAT INDEX
  VSB - VISIBILITY




USA.gov is the U.S. government's official web portal to all federal, state and local government web resources and services.